Location: NCO
(38.4404°N, 77.1340°W)
Time: 04:34:37
(UTC-05:00)

Tiangong 1 - Visible Passes

Search period start: 19 January 2018 00:00
Search period end: 29 January 2018 00:00
Orbit: 263 x 288 km, 42.8° (Epoch: 18 January)

Date Brightness Start Highest point End Pass type
(mag) Time Alt. Az. Time Alt. Az. Time Alt. Az.
19 Jan 1.8 17:58:22 10° WNW 18:00:34 27° N 18:02:12 14° NE visible
20 Jan 1.6 17:58:03 10° WNW 18:00:19 29° N 18:02:00 14° ENE visible
21 Jan 1.2 17:57:35 10° WNW 17:59:55 36° NNE 18:01:47 14° ENE visible
22 Jan 0.7 17:56:56 10° WNW 17:59:22 50° NNE 18:01:34 12° E visible
22 Jan 4.4 19:31:31 10° W 19:31:33 10° W 19:31:33 10° W visible
23 Jan 0.3 17:56:10 10° WNW 17:58:39 84° NNE 18:01:05 10° ESE visible
24 Jan 1.2 17:55:20 10° WNW 17:57:45 52° SSW 18:00:08 10° SE visible
25 Jan 2.5 17:54:30 10° W 17:56:41 28° SSW 17:58:51 10° SSE visible
26 Jan 3.5 17:53:50 10° WSW 17:55:26 15° SW 17:57:01 10° S visible
